Wind_Speed
10 9 6 4 5 5 6 4 2 3 4 1 3 6 4 8 2 1 4 8 10 20 20 20 20 16 16 15 13 12 9 8 8 8 8 11 9 8 7 4 5 5 3 3 7 7 5 7 7
7 5 3 2 6 8 7 5 8 1 5 6 6 7 7 2 1 4 10 8 13 20 19 20 20 17 17 15 13 11 9 7 8 9 9 13 9 7 6 6 5 5 4 3 3 1 2 1 2
4 3 4 4 7 12 5 6 6 2 4 3 3 3 3 1 2 4 4 11 16 19 19 17 20 18 16 15 13 11 9 8 9 10 13 13 8 7 7 6 5 5 6 5 5 3 1 2 3
5 5 3 9 15 8 7 3 4 3 3 1 3 5 2 1 2 4 7 10 17 17 16 17 20 17 16 14 13 10 9 9 10 11 12 11 8 8 7 5 4 6 7 8 8 7 5 4 4
5 3 8 11 18 12 9 5 5 6 5 4 4 1 1 3 3 5 12 11 16 17 16 16 18 17 16 13 13 10 9 10 10 10 10 10 8 8 7 4 3 4 5 6 5 5 4 3 3
6 4 8 15 17 10 11 10 10 10 6 5 4 5 0 2 3 6 11 12 15 17 15 14 16 17 16 14 13 11 9 10 11 11 11 9 7 7 7 7 3 2 4 4 4 4 3 3 3
12 9 15 17 15 13 13 7 11 11 10 7 1 5 2 3 4 9 11 12 14 15 16 14 15 15 15 14 12 11 10 9 11 11 11 8 5 4 8 11 6 3 2 2 3 3 3 2 2
6 6 14 12 16 18 5 7 6 8 7 1 2 5 4 4 6 10 11 12 12 15 15 15 15 15 14 13 12 11 10 9 10 11 11 10 6 2 6 10 5 3 2 1 1 2 2 2 2
2 7 12 19 15 10 4 9 10 2 7 3 3 3 3 0 8 10 11 11 12 14 15 15 15 15 14 13 13 12 10 9 9 9 12 10 7 5 6 7 6 4 3 1 0 1 2 2 3
9 10 15 7 11 7 5 8 3 6 10 11 8 5 2 3 9 12 13 14 14 15 16 15 16 16 15 13 12 13 11 9 9 9 9 9 8 7 6 6 6 5 3 2 1 1 2 3 1
9 13 9 6 6 3 8 10 8 11 14 13 11 6 1 1 7 10 12 11 13 13 15 17 17 17 16 15 14 13 12 11 10 11 10 9 8 6 7 6 5 5 3 2 1 2 2 2 2
8 10 10 7 9 6 10 8 13 14 19 8 8 6 8 8 6 9 12 12 12 13 15 16 18 19 19 16 17 15 15 14 12 12 12 10 9 7 6 5 5 5 4 3 3 2 2 2 3
9 9 8 10 10 12 13 18 21 20 18 17 16 15 16 14 13 11 11 13 12 14 15 17 19 20 20 20 18 18 17 16 14 14 13 12 11 9 6 5 4 4 4 3 2 1 1 2 4
1 6 9 9 13 13 16 21 19 18 18 22 23 23 22 21 19 17 13 14 15 15 15 16 20 21 21 22 21 20 18 17 16 16 15 14 12 11 9 8 7 6 5 3 2 1 2 3 4
6 11 13 15 13 13 10 21 21 21 22 25 22 21 21 22 26 22 20 17 16 16 15 16 17 20 22 22 22 21 20 19 18 17 17 16 15 14 13 11 9 6 4 3 2 1 2 3 5
5 6 6 3 1 4 9 16 6 10 13 17 20 21 22 22 24 29 26 22 18 15 14 12 13 18 22 23 23 22 21 21 19 18 18 19 18 17 16 14 11 8 5 3 2 2 2 4 6
8 8 9 10 4 4 10 12 3 3 9 12 13 13 14 17 20 27 29 26 22 19 18 16 14 17 19 21 22 23 22 22 20 18 19 21 20 20 18 14 11 9 7 5 3 2 3 5 7
5 12 9 11 2 9 17 22 20 19 21 20 18 17 17 18 18 20 23 25 27 23 20 18 16 16 17 18 21 22 22 21 20 19 23 23 23 21 19 14 12 10 8 6 4 4 5 7 9
5 7 11 10 9 17 19 22 21 21 24 24 23 22 23 23 20 24 23 21 19 20 20 19 16 15 18 21 24 25 24 18 18 18 22 27 26 23 18 16 10 11 8 7 5 4 5 6 10
14 16 17 15 13 14 19 33 24 25 29 26 25 25 25 25 24 23 26 27 23 21 20 19 18 18 21 20 22 21 19 14 22 23 23 25 25 22 19 15 12 12 10 8 7 5 2 4 9
16 16 15 17 16 18 21 27 15 8 14 17 22 25 25 25 24 23 24 28 26 23 21 19 18 19 21 21 20 18 17 19 16 20 24 22 24 22 18 17 13 12 10 9 7 6 4 4 5
14 8 12 13 8 6 3 12 18 16 15 14 15 16 18 19 20 22 22 25 29 26 21 19 19 21 22 25 23 25 22 22 19 21 23 25 22 20 18 17 13 11 10 9 7 6 5 3 3
7 5 7 8 11 14 15 7 14 5 13 12 16 17 14 14 16 19 20 26 26 25 22 21 21 22 23 25 23 24 21 20 23 20 25 26 24 21 15 14 13 11 10 9 7 6 4 3 1
2 6 9 10 6 8 17 16 20 14 12 10 9 9 10 10 12 15 19 20 23 23 20 22 24 24 23 25 24 27 28 29 28 25 30 29 23 18 13 14 12 10 10 8 6 5 3 2 0
10 3 3 4 6 8 2 10 22 10 5 13 20 19 13 14 13 13 13 14 19 21 21 23 24 24 25 25 26 26 27 28 31 32 35 24 25 17 15 14 12 10 9 7 5 4 2 1 2
15 9 5 6 6 8 4 11 10 11 10 16 17 12 11 12 12 13 13 12 18 23 25 25 26 24 25 25 26 24 27 27 31 30 31 23 19 17 16 13 11 10 9 6 4 2 1 1 3
5 9 12 14 20 15 11 22 24 25 22 20 20 17 10 10 13 11 13 11 16 20 25 27 27 25 26 26 26 25 29 31 27 33 29 23 17 17 15 13 11 9 7 5 3 1 1 3 4
12 3 4 6 5 10 13 20 14 14 9 7 9 9 8 11 14 12 10 10 15 19 23 23 23 24 26 27 26 25 28 30 34 33 28 21 18 17 15 12 10 8 6 4 2 1 2 3 5
10 8 7 8 9 6 14 9 2 10 10 15 4 4 9 11 14 13 9 9 13 17 21 23 24 26 26 25 25 27 32 34 32 26 21 20 18 16 14 12 9 7 4 2 1 2 3 5 6
15 15 19 9 13 11 16 23 7 12 9 4 4 9 9 11 11 10 5 7 13 18 21 24 25 25 25 26 28 29 34 32 26 23 20 19 18 15 13 10 8 5 3 0 1 3 5 7 8
Wind_Direction
325 315 308 246 244 241 236 218 264 206 208 266 293 251 305 318 273 8 124 153 142 155 163 167 172 169 159 154 151 146 142 140 150 161 163 155 134 128 106 83 82 70 102 102 73 84 92 76 71
319 314 261 255 249 231 218 205 203 164 323 301 272 234 244 238 17 87 137 162 151 156 161 168 176 174 165 161 157 151 146 144 145 152 162 144 125 123 114 113 96 74 68 107 153 99 49 43 9
273 288 251 234 237 236 243 191 160 337 333 239 240 256 296 69 106 130 98 149 156 160 160 170 179 177 172 166 164 157 150 145 146 146 140 143 128 117 122 121 88 62 68 83 89 107 51 21 35
216 188 191 238 231 235 243 165 157 335 142 62 334 245 201 66 109 117 149 147 157 165 164 173 181 182 179 173 168 162 152 140 143 144 137 144 150 151 142 133 82 59 73 80 80 74 64 43 33
198 228 230 237 243 240 235 261 260 281 303 304 325 228 258 136 136 137 147 154 164 167 166 166 184 187 182 178 170 168 158 150 144 151 159 158 159 170 176 164 114 77 80 82 75 62 42 26 20
191 245 225 232 235 225 246 253 262 262 267 292 251 263 266 93 144 145 152 156 167 170 168 169 183 189 187 184 176 173 166 164 160 157 151 166 182 199 209 207 180 105 82 74 57 38 20 9 8
230 216 232 241 244 244 240 237 243 262 263 244 281 246 100 158 118 145 151 157 166 175 173 176 180 190 195 192 187 182 174 170 174 169 171 176 175 213 265 200 189 149 102 58 31 360 17 21 25
230 237 232 227 240 242 212 220 252 236 247 353 253 225 184 55 146 155 158 162 168 174 178 180 182 189 189 195 198 189 183 181 175 180 183 191 190 182 117 149 170 158 142 97 28 32 30 13 352
196 226 229 228 238 229 192 224 223 267 255 233 210 278 18 32 170 173 173 174 175 180 184 184 186 191 194 196 192 194 192 187 183 180 189 191 183 169 144 171 176 173 198 223 173 350 4 6 353
211 225 235 255 249 237 229 244 207 233 215 226 211 181 40 159 189 198 198 193 191 188 189 188 190 194 196 197 194 191 194 193 189 183 183 187 192 189 176 166 179 198 204 220 309 20 31 42 31
208 228 221 231 233 253 252 242 242 243 243 234 229 232 349 50 206 224 226 221 206 201 196 196 192 194 196 198 197 196 194 196 194 185 178 183 189 196 189 189 192 198 208 208 116 85 90 47 3
222 242 242 249 239 258 246 266 251 245 249 264 277 278 292 269 261 237 231 226 214 204 206 203 200 195 196 199 200 201 198 195 190 186 177 168 168 173 182 189 180 180 191 170 139 121 89 2 6
231 245 249 249 256 258 265 254 257 260 254 257 263 265 267 268 263 256 244 235 223 215 209 207 206 203 199 200 201 201 202 198 190 182 181 175 171 170 169 173 167 160 145 146 125 114 39 4 353
162 251 265 268 256 260 261 261 253 247 254 256 257 257 256 258 259 255 240 241 235 233 223 213 210 209 207 204 201 199 199 196 190 184 181 179 176 173 166 164 162 177 149 135 117 72 357 359 352
244 268 267 259 255 264 263 264 246 251 249 254 251 249 248 250 252 250 246 245 241 239 233 224 218 214 213 211 206 199 196 194 191 187 182 184 187 190 185 177 176 176 164 114 89 27 10 349 341
237 253 265 126 327 236 218 261 279 285 241 250 255 255 250 244 246 248 247 250 250 249 232 233 224 215 216 215 209 203 195 191 191 189 184 188 192 190 180 174 169 173 168 140 100 49 348 352 339
213 258 240 285 235 270 220 278 216 319 260 260 258 260 261 256 251 251 252 252 251 247 244 242 231 226 222 216 209 204 197 191 189 188 185 189 190 185 181 176 162 160 160 134 115 66 33 3 351
251 231 243 255 181 271 272 266 268 270 274 271 266 261 257 257 252 251 250 248 249 247 243 236 230 227 214 207 203 201 197 189 185 181 189 189 183 180 180 167 158 153 144 128 113 84 44 23 353
297 270 262 259 271 298 276 275 274 274 268 264 260 257 258 256 255 254 251 248 241 235 233 233 225 215 201 196 193 192 188 178 171 175 181 180 179 176 175 166 151 145 134 126 119 88 52 20 6
254 264 268 280 280 282 289 284 283 270 260 257 255 256 254 252 250 248 243 243 236 232 227 224 218 205 196 197 191 190 178 165 170 165 169 171 171 174 171 157 154 144 132 114 94 90 76 41 26
242 253 264 273 298 286 284 283 263 266 254 257 251 253 257 254 248 243 240 233 233 230 226 219 210 199 192 186 177 162 148 147 143 151 159 159 165 167 171 162 151 141 132 118 103 85 74 53 36
260 253 255 268 278 276 38 290 286 280 276 263 260 248 245 247 247 246 245 240 228 226 220 212 202 192 187 179 176 181 172 158 158 154 155 156 161 158 163 153 145 137 126 116 104 90 76 56 28
241 222 236 257 269 289 246 251 274 209 272 258 264 263 260 260 253 248 238 237 236 224 211 201 195 189 184 185 181 179 167 154 149 150 149 154 152 158 153 147 140 131 122 116 111 99 87 72 36
92 236 257 263 263 252 247 212 276 279 273 260 251 275 272 263 258 252 247 235 231 224 206 192 189 187 183 180 179 176 167 155 151 154 151 155 157 146 149 140 135 128 124 119 115 108 102 96 100
216 186 264 233 206 247 358 219 243 267 218 267 279 296 283 290 281 265 249 227 217 210 197 189 186 183 180 176 174 174 169 164 161 158 158 156 153 154 153 141 139 132 127 125 123 120 129 180 272
198 201 228 254 244 280 66 246 248 263 269 263 266 273 289 300 295 268 251 225 218 203 194 186 183 179 175 170 168 167 165 161 156 158 157 151 152 151 147 142 138 133 131 131 134 137 167 260 280
174 216 239 276 273 274 243 263 274 268 262 256 261 266 256 303 317 304 259 231 211 199 189 185 180 176 170 165 159 156 155 158 155 158 156 148 150 143 142 141 138 138 138 140 142 163 249 268 267
218 203 187 208 271 267 256 258 258 281 272 240 236 227 291 309 322 320 266 228 206 194 182 176 175 171 163 158 156 152 153 157 158 157 155 147 143 141 143 139 141 143 145 145 142 239 261 271 294
198 226 214 281 242 257 280 256 40 284 266 260 230 249 304 319 323 318 281 210 188 176 169 164 162 159 157 154 149 145 148 154 151 144 147 145 141 142 141 143 144 148 150 148 204 280 280 300 300
234 237 222 230 234 233 251 267 316 282 266 284 244 284 313 319 316 319 275 180 163 160 160 156 154 153 152 147 142 137 141 141 141 144 145 142 139 139 140 142 143 141 144 132 295 292 299 299 294
Height
796 794 792 790 798 792 791 787 776 778 776 766 767 769 765 761 761 772 767 769 770 773 779 782 785 788 789 791 792 793 794 796 798 800 801 803 805 806 807 808 808 807 806 806 806 806 807 808 808
794 793 792 787 797 797 783 775 782 774 769 766 767 766 768 762 759 763 767 770 772 774 778 782 784 787 790 791 793 794 795 797 798 800 802 803 805 807 807 808 808 808 807 806 806 807 807 808 808
794 793 789 789 789 791 785 776 772 772 767 767 766 763 760 762 762 763 768 770 773 776 778 782 785 787 790 792 794 795 796 797 798 799 801 803 805 806 807 808 808 808 807 807 807 807 808 809 808
793 790 790 794 787 780 779 773 774 772 766 766 765 766 760 763 762 766 769 771 774 778 780 781 785 788 789 792 794 796 796 797 798 800 801 803 804 806 807 808 808 809 808 808 808 808 809 809 809
790 785 790 791 782 774 774 772 772 774 771 767 766 764 761 763 765 766 769 772 775 778 781 783 786 788 790 792 793 796 797 798 799 800 802 804 805 806 808 808 808 809 809 809 809 810 810 810 810
787 782 791 788 779 776 773 769 773 771 769 766 767 765 759 764 766 768 769 772 775 779 782 784 786 789 790 792 794 795 797 799 799 801 802 804 806 806 806 808 808 809 810 810 810 810 810 810 810
784 785 782 779 777 777 772 768 773 770 769 766 763 766 759 762 766 768 770 772 775 779 780 784 787 789 791 793 794 795 796 798 800 801 802 804 805 805 805 806 808 808 810 810 810 809 809 809 809
781 780 781 781 777 778 768 772 767 768 766 765 764 764 762 766 768 770 771 773 775 777 780 782 786 789 791 793 794 795 797 798 799 800 802 803 804 805 805 807 809 809 809 810 809 810 809 809 809
784 784 782 778 777 774 772 774 764 767 768 765 763 763 766 768 769 771 772 773 775 776 778 781 784 787 790 792 793 796 797 798 799 800 801 803 805 806 807 806 808 809 809 809 809 809 809 809 809
781 783 775 768 769 773 771 771 770 771 767 764 763 765 766 767 768 769 769 769 772 774 776 778 782 785 788 791 792 794 796 798 799 800 801 803 805 806 806 806 806 808 809 809 809 808 809 810 810
781 778 771 777 775 775 775 774 771 769 769 762 762 759 764 765 767 767 766 766 769 771 774 776 778 782 785 788 790 792 793 796 798 798 800 802 804 805 806 807 807 808 808 809 809 809 810 810 810
786 778 777 777 777 778 776 772 772 768 763 759 765 764 764 762 762 762 763 764 766 768 771 774 776 778 780 783 786 788 791 792 794 796 798 799 802 805 805 806 806 807 808 808 808 808 808 808 808
783 778 781 778 781 778 775 773 771 767 763 763 762 762 760 759 759 759 761 761 762 764 767 769 772 774 775 778 781 783 787 789 790 793 796 798 800 802 804 806 807 807 807 808 808 808 808 808 807
783 784 782 780 778 776 777 769 769 762 759 759 758 757 756 755 753 755 757 758 759 760 762 764 766 770 772 774 775 778 783 785 788 790 792 795 798 799 802 804 805 805 807 807 807 808 808 806 806
784 786 777 773 771 772 771 767 759 754 754 753 751 749 749 749 749 749 751 752 754 755 758 759 762 765 767 770 772 774 778 781 784 787 789 792 794 797 798 800 802 804 806 807 807 807 807 806 805
783 781 776 766 770 768 773 757 746 746 747 748 746 745 743 743 743 743 745 747 750 751 753 756 757 759 761 764 767 770 773 776 780 784 786 788 791 794 796 798 799 802 804 805 806 807 807 805 804
778 772 776 773 765 768 769 755 748 748 747 747 743 742 742 740 738 739 740 742 744 746 747 749 752 754 757 760 763 766 769 772 776 780 782 785 788 791 794 796 798 800 802 804 806 806 805 805 803
766 774 772 773 766 767 764 756 750 748 746 743 740 737 736 736 733 735 735 736 737 739 741 742 744 747 751 755 759 762 766 768 771 774 778 782 786 789 792 795 797 799 801 803 804 804 804 803 802
778 776 775 770 768 768 760 751 748 744 741 738 734 731 729 726 727 729 729 730 731 733 735 736 738 740 745 749 752 756 760 764 767 769 775 779 782 787 791 794 798 798 801 801 802 802 804 803 801
782 780 775 769 767 769 760 737 740 737 727 725 724 721 717 717 716 717 720 721 723 725 727 730 731 734 739 745 749 754 758 762 762 766 772 777 781 786 790 792 797 797 799 800 801 802 804 803 802
781 778 774 773 769 768 762 729 714 706 707 709 711 711 710 708 707 706 707 710 713 716 719 723 726 729 734 739 746 751 754 758 762 766 771 776 781 785 790 791 796 796 798 799 800 802 803 803 804
777 770 777 777 778 768 767 736 713 705 702 703 701 700 699 699 701 701 700 701 703 707 712 716 721 724 729 733 739 744 745 752 760 766 770 775 781 784 790 791 794 796 797 799 800 802 802 803 805
775 774 775 774 772 770 761 778 701 704 704 702 695 690 689 691 693 693 692 695 697 701 705 710 716 720 724 729 732 741 747 753 758 766 771 777 780 786 790 791 794 795 797 798 800 802 803 803 804
775 778 776 773 777 767 743 754 698 690 685 686 688 687 685 685 686 686 686 688 691 696 700 704 710 715 720 724 729 734 742 748 755 765 770 775 781 784 790 790 793 796 797 798 800 801 802 803 804
776 784 769 769 771 744 723 727 699 682 685 688 682 679 681 681 681 680 680 681 684 689 694 700 706 711 716 720 726 732 740 746 751 759 765 774 778 784 788 789 793 795 796 798 800 801 802 803 803
774 774 760 751 728 721 734 720 683 676 679 680 679 679 680 677 674 674 674 674 677 682 688 695 701 709 713 718 724 732 739 745 751 757 764 771 779 783 787 790 793 794 796 798 799 800 801 801 801
771 773 761 762 751 746 720 690 675 671 676 678 677 677 678 676 671 668 668 670 672 677 682 689 697 705 711 716 724 731 737 743 751 758 765 772 779 782 787 790 793 795 796 798 799 800 800 800 799
759 756 768 769 751 727 694 687 678 669 672 671 673 677 677 673 667 664 664 664 668 673 680 688 697 705 709 716 723 730 737 744 751 759 766 772 778 782 787 790 794 796 797 797 797 798 798 798 796
762 765 763 748 736 724 697 668 661 667 666 666 664 673 674 671 667 664 661 663 667 674 680 688 696 703 711 717 723 730 738 746 754 761 769 774 778 783 787 791 794 796 797 796 796 796 796 795 794
734 735 740 743 722 720 710 665 664 663 664 671 669 666 667 669 669 666 664 665 669 676 683 689 697 705 712 718 724 731 741 749 757 764 770 774 779 783 787 791 793 794 795 794 794 794 794 793 792